Location: T�bingen+AIT
(48.5342°N, 9.0700°E)
Time: 20:25:31
(UTC+02:00)

Cosmos 1726 Rocket - Pass Details

Date: 14 September 2017
Orbit: 602 x 631 km, 82.5° (Epoch: 19 September)

Event Time Altitude Azimuth Distance (km) Brightness Sun altitude
Rises 21:15:55 0° 187° (S) 2,885 6.8 -16.4°
Reaches altitude 10° 21:18:08 10° 187° (S) 1,980 6.0 -16.7°
Maximum altitude 21:22:32 88° 100° (E) 622 3.5 -17.4°
Drops below altitude 10° 21:26:55 10° 10° (N) 1,978 6.3 -18.0°
Sets 21:29:08 0° 10° (N) 2,883 7.2 -18.3°
